Zurück zum Katalog

METEOR 2-17 DEB

AktivPO
NORAD 38282·DEBRIS·🇷🇺 Russia

Gestartet Jan 30, 1988 von Plesetsk Cosmodrome

Loading…

Nächste Überflüge (nächste 24 Stunden)

TLE

AktuellSource: Space-Track

Epoche: Sep 13, 2026, 12:29 UTC

1 38282U 88005AK  26256.52077773  .00001290  00000-0  80980-3 0  9993
2 38282  82.5376 185.5859 0026016 332.2912  27.6871 14.03631968123271

Verfolge METEOR 2-17 DEB in Echtzeit mit AllMySat

Download on the App Store